FW0884 Weather Reports


time (UTC)temp
C
wind
direction
speed
KPH
gust
KPH
rain 1hr
cm
rain 24hr
cm
rain mn
cm
humidity
%
barometer
mb
20260504214021 16 188 9.7 17.7 0.00 0.00 0.00 57 1009.4
20260504213521 16 182 8.0 20.9 0.00 0.00 0.00 57 1009.4
20260504213021 17 170 9.7 20.9 0.00 0.00 0.00 56 1009.4
20260504212521 17 226 6.4 20.9 0.00 0.00 0.00 56 1009.2
20260504212024 17 224 9.7 19.3 0.00 0.00 0.00 56 1009.2
20260504211520 17 193 9.7 16.1 0.00 0.00 0.00 56 1009.3
20260504211019 17 210 9.7 16.1 0.00 0.00 0.00 55 1009.2
20260504210519 17 184 9.7 17.7 0.00 0.00 0.00 55 1009.2
20260504210019 17 196 9.7 19.3 0.00 0.00 0.00 55 1009.3
20260504205519 17 251 9.7 19.3 0.00 0.00 0.00 54 1009.3
20260504205019 17 198 8.0 16.1 0.00 0.00 0.00 54 1009.3
20260504204531 17 186 8.0 17.7 0.00 0.00 0.00 54 1009.3
20260504204018 17 192 12.9 17.7 0.00 0.00 0.00 53 1009.2
20260504203517 18 209 11.3 19.3 0.00 0.00 0.00 52 1009.2
20260504203017 18 186 9.7 19.3 0.00 0.00 0.00 52 1009.2
20260504202517 18 134 11.3 22.5 0.00 0.00 0.00 53 1009.2
20260504202016 18 209 11.3 25.7 0.00 0.00 0.00 51 1009.2
20260504201516 18 208 9.7 25.7 0.00 0.00 0.00 53 1009.2
20260504201017 18 155 11.3 24.1 0.00 0.00 0.00 53 1009.2
20260504200516 18 173 9.7 25.7 0.00 0.00 0.00 52 1009.3
20260504200015 18 132 9.7 25.7 0.00 0.00 0.00 52 1009.2
20260504195514 18 175 8.0 19.3 0.00 0.00 0.00 51 1009.4
20260504195015 19 192 9.7 16.1 0.00 0.00 0.00 49 1009.4
20260504194515 19 191 8.0 19.3 0.00 0.00 0.00 48 1009.4
20260504194014 19 245 8.0 20.9 0.00 0.00 0.00 48 1009.5
20260504193515 19 215 9.7 17.7 0.00 0.00 0.00 49 1009.5
20260504193015 19 187 6.4 17.7 0.00 0.00 0.00 49 1009.4
20260504192514 20 188 8.0 14.5 0.00 0.00 0.00 49 1009.3
20260504192013 20 238 4.8 17.7 0.00 0.00 0.00 48 1009.4
20260504191513 20 209 9.7 17.7 0.00 0.00 0.00 49 1009.3
20260504191012 20 262 9.7 20.9 0.00 0.00 0.00 46 1009.3
20260504190516 19 202 11.3 20.9 0.00 0.00 0.00 47 1009.4
20260504190012 20 204 11.3 17.7 0.00 0.00 0.00 45 1009.6
20260504185510 20 226 11.3 19.3 0.00 0.00 0.00 45 1009.6
20260504185012 20 130 8.0 16.1 0.00 0.00 0.00 45 1009.6
20260504184510 20 178 6.4 17.7 0.00 0.00 0.00 46 1009.7
20260504184013 20 217 11.3 17.7 0.00 0.00 0.00 46 1009.8
20260504183509 20 220 8.0 19.3 0.00 0.00 0.00 48 1009.7
20260504183008 20 197 11.3 19.3 0.00 0.00 0.00 46 1009.7
20260504182509 20 159 9.7 27.4 0.00 0.00 0.00 45 1009.8
20260504182007 20 188 9.7 27.4 0.00 0.00 0.00 45 1009.7
20260504181506 20 201 8.0 19.3 0.00 0.00 0.00 48 1009.9
20260504181007 20 207 8.0 16.1 0.00 0.00 0.00 46 1009.9
20260504180506 20 238 8.0 16.1 0.00 0.00 0.00 48 1010.0
20260504180005 20 181 6.4 16.1 0.00 0.00 0.00 48 1010.0
20260504175504 19 203 11.3 22.5 0.00 0.00 0.00 46 1010.2
20260504175006 19 184 9.7 22.5 0.00 0.00 0.00 47 1010.2
20260504174505 19 200 8.0 19.3 0.00 0.00 0.00 47 1010.2
20260504174004 20 186 8.0 19.3 0.00 0.00 0.00 45 1010.2
20260504173504 20 209 9.7 16.1 0.00 0.00 0.00 45 1010.1
20260504173003 19 207 8.0 24.1 0.00 0.00 0.00 44 1010.1
20260504172502 20 205 11.3 22.5 0.00 0.00 0.00 43 1010.2
20260504172002 20 188 11.3 17.7 0.00 0.00 0.00 43 1010.3
20260504171506 20 232 8.0 25.7 0.00 0.00 0.00 40 1010.4
20260504171003 20 223 12.9 25.7 0.00 0.00 0.00 41 1010.4
20260504170500 20 202 11.3 29.0 0.00 0.00 0.00 39 1010.4
20260504151048 18 210 12.9 24.1 0.00 0.00 0.00 40 1011.7
20260504150548 18 225 11.3 20.9 0.00 0.00 0.00 40 1011.6
20260504141038 16 218 12.9 24.1 0.00 0.00 0.00 44 1012.0
20260504140537 16 191 9.7 19.3 0.00 0.00 0.00 45 1012.1
20260504130525 14 200 8.0 16.1 0.00 0.00 0.00 51 1012.5
20260504110556 8 199 6.4 11.3 0.00 0.00 0.00 66 1012.6
20260504100546 7 238 1.6 6.4 0.00 0.00 0.00 67 1012.2
20260504081535 7 217 0.0 4.8 0.00 0.00 0.00 68 1011.9
20260504081033 7 224 1.6 4.8 0.00 0.00 0.00 68 1011.8
20260504080535 7 223 1.6 3.2 0.00 0.00 0.00 68 1011.7
20260504050506 6 301 0.0 0.0 0.00 0.00 0.00 70 1011.1
20260504050006 6 302 0.0 0.0 0.00 0.00 0.00 70 1011.2
20260504045504 6 302 0.0 0.0 0.00 0.00 0.00 70 1011.1
20260504045004 6 302 0.0 0.0 0.00 0.00 0.00 70 1011.2
20260504044506 6 307 0.0 0.0 0.00 0.00 0.00 69 1011.2
20260504044004 6 307 0.0 0.0 0.00 0.00 0.00 69 1011.1
20260504043509 6 307 0.0 0.0 0.00 0.00 0.00 69 1011.2
20260504043004 6 307 0.0 0.0 0.00 0.00 0.00 69 1011.2
20260504042503 6 307 0.0 0.0 0.00 0.00 0.00 69 1011.3
20260504042002 6 307 0.0 0.0 0.00 0.00 0.00 69 1011.3
20260504041502 6 307 0.0 0.0 0.00 0.00 0.00 69 1011.2
20260504041001 6 307 0.0 0.0 0.00 0.00 0.00 69 1011.3
20260504040602 6 307 0.0 0.0 0.00 0.00 0.00 68 1011.3
20260504040104 6 307 0.0 0.0 0.00 0.00 0.00 68 1011.2
20260504035558 6 307 0.0 0.0 0.00 0.00 0.00 68 1011.1
20260504035058 6 307 0.0 0.0 0.00 0.00 0.00 68 1011.1
20260504034615 6 307 0.0 0.0 0.00 0.00 0.00 68 1011.1
20260504034100 6 307 0.0 0.0 0.00 0.00 0.00 68 1011.1
20260504033557 6 307 0.0 0.0 0.00 0.00 0.00 67 1011.1
20260504033103 6 307 0.0 0.0 0.00 0.00 0.00 67 1010.9
20260504032557 7 307 0.0 0.0 0.00 0.00 0.00 67 1011.0
20260504032056 7 307 0.0 0.0 0.00 0.00 0.00 66 1011.0
20260504031603 7 307 0.0 0.0 0.00 0.00 0.00 66 1011.1
20260504031059 7 307 0.0 0.0 0.00 0.00 0.00 66 1011.0
20260504030556 7 307 0.0 0.0 0.00 0.00 0.00 66 1010.9
20260504030054 7 307 0.0 0.0 0.00 0.00 0.00 65 1011.0
20260504025554 7 307 0.0 0.0 0.00 0.00 0.00 66 1011.0
20260504025054 7 307 0.0 0.0 0.00 0.00 0.00 65 1011.0
20260504024557 7 307 0.0 0.0 0.00 0.00 0.00 65 1010.9
20260504024054 7 307 0.0 0.0 0.00 0.00 0.00 63 1010.9
20260504023554 7 307 0.0 0.0 0.00 0.00 0.00 62 1010.8
20260504023054 8 307 0.0 0.0 0.00 0.00 0.00 62 1010.9
20260504022554 8 307 0.0 0.0 0.00 0.00 0.00 62 1010.9
20260504022055 8 307 0.0 0.0 0.00 0.00 0.00 62 1010.8
20260504021557 8 307 0.0 0.0 0.00 0.00 0.00 62 1010.9
20260504021053 8 307 0.0 0.0 0.00 0.00 0.00 62 1010.9
20260504020555 8 307 0.0 0.0 0.00 0.00 0.00 60 1010.9
20260504015551 9 307 0.0 0.0 0.00 0.00 0.00 59 1010.9
20260504015050 9 307 0.0 0.0 0.00 0.00 0.00 60 1010.8
20260504014553 9 307 0.0 0.0 0.00 0.00 0.00 60 1010.8
20260504014049 9 307 0.0 0.0 0.00 0.00 0.00 61 1010.8
20260504013548 10 307 0.0 0.0 0.00 0.00 0.00 60 1010.7
20260504013050 10 307 0.0 0.0 0.00 0.00 0.00 59 1010.5
20260504012552 10 307 0.0 0.0 0.00 0.00 0.00 58 1010.5
20260504012048 10 307 0.0 0.0 0.00 0.00 0.00 58 1010.5
20260504011548 10 307 0.0 0.0 0.00 0.00 0.00 58 1010.5
20260504011048 10 307 0.0 0.0 0.00 0.00 0.00 58 1010.4
20260504010545 10 307 0.0 0.0 0.00 0.00 0.00 56 1010.3
20260504010044 10 307 0.0 0.0 0.00 0.00 0.00 53 1010.2
20260504005544 10 307 0.0 0.0 0.00 0.00 0.00 52 1010.1
20260504005043 11 307 0.0 0.0 0.00 0.00 0.00 52 1010.0
20260504004543 11 307 0.0 0.0 0.00 0.00 0.00 51 1009.9
20260504004043 11 307 0.0 0.0 0.00 0.00 0.00 51 1009.8
20260504003542 11 307 0.0 1.6 0.00 0.00 0.00 51 1009.8
20260504003046 11 307 0.0 1.6 0.00 0.00 0.00 50 1009.7
20260504002545 11 307 0.0 0.0 0.00 0.00 0.00 49 1009.7
20260504002042 11 307 0.0 1.6 0.00 0.00 0.00 48 1009.4
20260504001542 11 307 0.0 1.6 0.00 0.00 0.00 47 1009.6
20260504001042 11 307 0.0 1.6 0.00 0.00 0.00 46 1009.4
20260504000544 12 307 0.0 1.6 0.00 0.00 0.00 45 1009.3
20260504000046 12 307 0.0 3.2 0.00 0.00 0.00 44 1009.3
20260503235540 12 307 0.0 4.8 0.00 0.00 0.00 44 1009.2
20260503235040 12 258 0.0 6.4 0.00 0.00 0.00 43 1009.2
20260503234540 12 277 1.6 6.4 0.00 0.00 0.00 44 1009.2
20260503234042 12 224 0.0 4.8 0.00 0.00 0.00 43 1009.2
20260503233543 12 224 1.6 4.8 0.00 0.00 0.00 43 1009.1
20260503233039 12 301 1.6 8.0 0.00 0.00 0.00 42 1009.0
20260503232539 12 219 0.0 8.0 0.00 0.00 0.00 41 1009.0
20260503232039 12 273 3.2 6.4 0.00 0.00 0.00 41 1008.8
20260503231539 12 234 1.6 11.3 0.00 0.00 0.00 40 1008.9
20260503231039 12 275 1.6 11.3 0.00 0.00 0.00 39 1009.0
20260503230539 12 231 0.0 8.0 0.00 0.00 0.00 39 1008.9
20260503230054 12 221 3.2 9.7 0.00 0.00 0.00 41 1008.9
20260503225539 12 224 1.6 9.7 0.00 0.00 0.00 42 1008.9
20260503225038 12 311 3.2 8.0 0.00 0.00 0.00 41 1008.9
20260503224539 12 295 1.6 11.3 0.00 0.00 0.00 41 1008.9
20260503224038 12 264 3.2 11.3 0.00 0.00 0.00 42 1008.8
20260503223538 12 271 3.2 11.3 0.00 0.00 0.00 41 1008.8
20260503223037 12 259 1.6 12.9 0.00 0.00 0.00 42 1008.7
20260503222537 12 322 1.6 20.9 0.00 0.00 0.00 43 1008.8
20260503222042 13 239 4.8 20.9 0.00 0.00 0.00 43 1008.8
20260503221537 13 313 6.4 19.3 0.00 0.00 0.00 43 1008.8
20260503221037 13 278 6.4 19.3 0.00 0.00 0.00 45 1008.8
20260503220537 13 245 1.6 19.3 0.00 0.00 0.00 43 1008.7
20260503220036 13 304 6.4 19.3 0.00 0.00 0.00 44 1008.7
20260503215535 13 285 4.8 24.1 0.00 0.00 0.00 43 1008.6
20260503215036 13 294 6.4 24.1 0.00 0.00 0.00 41 1008.7
20260503214541 13 298 8.0 24.1 0.00 0.00 0.00 41 1008.6